This demonstration page uses our WeatherBlox Daily Observations layout. Learn more.

Left ArrowRight Arrow

39.12711, -84.51439

Hourly Observations for July 11, 2021

Temp ( °F °C ) Dew Point ( °F °C ) Humidity (%) Winds ( mph kmh ) Pressure ( in mb ) Visibility ( mi km ) Precip ( " mm )
2:53 am 02:53 Partly Cloudy with Light Rain 72 22.2 69 20.6 91 91 S 13 20 29.84 1010 10 16 0.04 1.02
3:53 am 03:53 Mostly Clear 70 21.1 67 19.4 90 90 S 8 13 29.84 1011 10 16 0.00 0.00
4:53 am 04:53 Partly Cloudy 69 20.6 66 18.9 90 90 S 8 13 29.84 1011 10 16 N/A
5:53 am 05:53 Partly Cloudy 69 20.6 66 18.9 90 90 S 7 11 29.84 1011 10 16 N/A
6:53 am 06:53 Mostly Cloudy with Light Rain 69 20.6 67 19.4 93 93 S 5 7 29.84 1010 6 10 0.05 1.27
7:34 am 07:34 Mostly Cloudy with Light Rain 69 20.6 67 19.4 93 93 N N/A 29.85 1011 7 11 0.01 0.25
7:53 am 07:53 Cloudy with Light Rain 70 21.1 67 19.4 90 90 N N/A 29.85 1011 7 11 0.02 0.51
8:53 am 08:53 Cloudy with Light Rain 69 20.6 67 19.4 93 93 N N/A 29.86 1011 3 5 0.21 5.33
9:53 am 09:53 Cloudy with Light Rain 70 21.1 68 20 93 93 S 3 6 29.88 1012 2 2 0.09 2.29
10:06 am 10:06 Cloudy with Light Rain 70 21.1 68 20 93 93 S 3 6 29.88 1012 2 2 0.01 0.25
10:53 am 10:53 Cloudy with Mist and Fog 72 22.2 70 21.1 94 94 S 7 11 29.89 1012 2 3 0.01 0.25
11:53 am 11:53 Cloudy with Mist and Fog 74 23.3 70 21.1 88 88 S 6 9 29.89 1012 6 10 N/A
12:53 pm 12:53 Cloudy 76 24.4 70 21.1 82 82 SSW 8 13 29.90 1013 10 16 N/A
1:53 pm 13:53 Mostly Cloudy 77 25 70 21.1 79 79 S 12 19 29.91 1013 10 16 0.00 0.00
2:53 pm 14:53 Mostly Cloudy with Light Rain 79 26.1 71 21.7 77 77 SW 8 13 29.91 1013 10 16 0.00 0.00
3:53 pm 15:53 Mostly Cloudy 81 27.2 69 20.6 67 67 WSW 9 15 29.89 1012 10 16 0.00 0.00
4:53 pm 16:53 Mostly Sunny 81 27.2 70 21.1 69 69 WSW 9 15 29.88 1012 10 16 N/A
5:53 pm 17:53 Partly Cloudy 80 26.7 69 20.6 69 69 WSW 6 9 29.89 1012 10 16 N/A
6:53 pm 18:53 Partly Cloudy 83 28.3 69 20.6 63 63 WNW 6 9 29.88 1012 10 16 N/A
7:53 pm 19:53 Mostly Cloudy 80 26.7 70 21.1 71 71 SSE 3 6 29.89 1012 10 16 N/A
8:53 pm 20:53 Mostly Sunny 76 24.4 72 22.2 88 88 N N/A 29.91 1013 10 16 N/A
9:53 pm 21:53 Mostly Clear 73 22.8 70 21.1 90 90 N N/A 29.92 1013 10 16 N/A
10:53 pm 22:53 Cloudy 73 22.8 70 21.1 90 90 N N/A 29.94 1014 10 16 N/A
11:53 pm 23:53 Cloudy 73 22.8 71 21.7 94 94 N N/A 29.96 1015 10 16 N/A

Powered by AerisWeather